FW9318 Weather Reports


time (UTC)temp
F
wind
direction
speed
knots
gust
knots
rain 1hr
in
rain 24hr
in
rain mn
in
humidity
%
barometer
mb
20260505112536 51 0 0.0 0.9 0.00 0.00 0.00 90 1015.5
20260505112036 51 0 0.0 0.9 0.00 0.00 0.00 90 1015.5
20260505111553 51 0 0.0 0.0 0.00 0.00 0.00 90 1015.4
20260505111036 51 0 0.0 0.9 0.00 0.00 0.00 90 1015.3
20260505110535 51 0 0.0 0.9 0.00 0.00 0.00 90 1015.3
20260505102036 51 0 0.0 0.9 0.00 0.00 0.00 90 1015.1
20260505101551 51 65 0.0 0.9 0.00 0.00 0.00 89 1015.1
20260505101036 51 0 0.0 0.9 0.00 0.00 0.00 90 1015.1
20260505100536 51 0 0.0 0.0 0.00 0.00 0.00 90 1015.1
20260505100053 51 0 0.0 0.0 0.00 0.00 0.00 89 1015.1
20260505095536 51 0 0.0 2.6 0.00 0.00 0.00 90 1015.1
20260505095035 51 0 0.0 2.6 0.00 0.00 0.00 90 1015.1
20260505094553 51 0 0.0 1.7 0.00 0.00 0.00 89 1015.1
20260505094039 52 63 0.0 1.7 0.00 0.00 0.00 89 1015.1
20260505093537 52 0 0.0 1.7 0.00 0.00 0.00 89 1015.2
20260505093054 52 0 0.0 1.7 0.00 0.00 0.00 89 1015.1
20260505092537 52 0 0.0 0.9 0.00 0.00 0.00 89 1014.9
20260505092036 52 0 0.0 0.9 0.00 0.00 0.00 89 1014.9
20260505091548 52 0 0.0 0.9 0.00 0.00 0.00 89 1014.9
20260505091036 52 0 0.0 0.9 0.00 0.00 0.00 89 1014.7
20260505090536 52 0 0.0 0.9 0.00 0.00 0.00 89 1014.7
20260505090051 52 0 0.0 0.9 0.00 0.00 0.00 89 1014.7
20260505085537 52 0 0.0 0.0 0.00 0.00 0.00 89 1014.7
20260505085036 51 0 0.0 0.9 0.00 0.00 0.00 89 1014.6
20260505084545 51 0 0.0 0.9 0.00 0.00 0.00 89 1014.7
20260505084035 51 0 0.0 0.9 0.00 0.00 0.00 89 1014.6
20260505083535 51 0 0.0 1.7 0.00 0.00 0.00 89 1014.5
20260505083048 51 0 0.0 1.7 0.00 0.00 0.00 89 1014.5
20260505082536 52 36 0.0 1.7 0.00 0.00 0.00 89 1014.6
20260505082036 52 0 0.0 0.9 0.00 0.00 0.00 89 1014.5
20260505081551 52 0 0.0 1.7 0.00 0.00 0.00 89 1014.6
20260505081036 52 50 0.0 1.7 0.00 0.00 0.00 89 1014.5
20260505080535 52 46 0.0 1.7 0.00 0.00 0.00 89 1014.6
20260505080054 52 0 0.0 2.6 0.00 0.00 0.00 89 1014.4
20260505075538 52 84 0.0 2.6 0.00 0.00 0.00 89 1014.5
20260505075035 52 54 0.0 1.7 0.00 0.00 0.00 89 1014.3
20260505074556 52 70 0.0 1.7 0.00 0.00 0.00 88 1014.4
20260505074035 52 44 0.0 0.9 0.00 0.00 0.00 88 1014.3
20260505073535 52 0 0.0 0.9 0.00 0.00 0.00 88 1014.2
20260505073102 52 0 0.0 0.9 0.00 0.00 0.00 88 1014.1
20260505072538 52 0 0.0 0.9 0.00 0.00 0.00 88 1014.1
20260505072037 52 0 0.0 0.9 0.00 0.00 0.00 88 1014.0
20260505071552 52 0 0.0 1.7 0.00 0.00 0.00 87 1013.9
20260505071037 52 41 0.0 1.7 0.00 0.00 0.00 88 1013.9
20260505070536 52 41 0.0 0.9 0.00 0.00 0.00 87 1013.9
20260505070046 52 0 0.0 0.9 0.00 0.00 0.00 87 1013.9
20260505065536 53 0 0.0 1.7 0.00 0.00 0.00 86 1013.9
20260505065035 53 0 0.0 3.5 0.00 0.00 0.00 86 1013.8
20260505064547 53 0 0.9 3.5 0.00 0.00 0.00 85 1013.8
20260505064035 53 0 0.0 1.7 0.00 0.00 0.00 85 1013.6
20260505063536 54 44 0.0 1.7 0.00 0.00 0.00 85 1013.6
20260505063049 54 0 0.0 1.7 0.00 0.00 0.00 85 1013.5
20260505062535 54 0 0.0 1.7 0.00 0.00 0.00 85 1013.4
20260505062035 54 48 0.0 1.7 0.00 0.00 0.00 84 1013.3
20260505061552 55 0 0.0 1.7 0.00 0.00 0.00 84 1013.3
20260505061036 55 0 0.0 0.9 0.00 0.00 0.00 84 1013.1
20260505060536 55 48 0.0 0.9 0.00 0.00 0.00 84 1013.2
20260505060048 55 0 0.0 2.6 0.00 0.00 0.00 83 1013.1
20260505055536 55 0 0.0 2.6 0.00 0.00 0.00 83 1013.0
20260505055036 55 49 0.0 1.7 0.00 0.00 0.00 83 1013.1
20260505054625 56 0 0.0 0.9 0.00 0.00 0.00 82 1013.1
20260505054035 56 0 0.0 0.9 0.00 0.00 0.00 82 1013.1
20260505053537 56 0 0.0 0.9 0.00 0.00 0.00 82 1013.0
20260505053103 56 44 0.0 0.9 0.00 0.00 0.00 82 1013.0
20260505052535 57 42 0.9 0.9 0.00 0.00 0.00 81 1013.0
20260505052035 57 51 0.0 0.9 0.00 0.00 0.00 81 1013.0
20260505051550 57 0 0.9 0.9 0.00 0.00 0.00 80 1012.9
20260505051036 57 46 0.0 0.9 0.00 0.00 0.00 80 1012.9
20260505050537 58 44 0.0 0.9 0.00 0.00 0.00 80 1012.9
20260505041541 61 44 0.9 1.7 0.00 0.00 0.00 75 1012.5
20260505041036 62 39 0.0 1.7 0.00 0.00 0.00 73 1012.4
20260505040536 62 57 0.0 3.5 0.00 0.00 0.00 75 1012.5
20260505040056 63 0 0.0 3.5 0.00 0.00 0.00 74 1012.3
20260505035537 63 51 0.9 2.6 0.00 0.00 0.00 73 1012.2
20260505035035 63 0 0.0 1.7 0.00 0.00 0.00 73 1012.2
20260505034549 64 0 0.0 3.5 0.00 0.00 0.00 73 1012.1
20260505034036 64 0 0.0 3.5 0.00 0.00 0.00 72 1012.0
20260505033536 65 0 0.0 3.5 0.00 0.00 0.00 73 1012.0
20260505033048 66 0 0.0 2.6 0.00 0.00 0.00 72 1012.0
20260505032535 66 0 0.0 0.9 0.00 0.00 0.00 71 1011.9
20260505032035 66 0 0.0 0.9 0.00 0.00 0.00 72 1011.8
20260505031557 67 73 0.0 0.0 0.00 0.00 0.00 73 1011.8
20260505031035 67 0 0.0 0.9 0.00 0.00 0.00 73 1011.6
20260505030537 67 0 0.0 1.7 0.00 0.00 0.00 73 1011.6
20260505030052 67 0 0.0 1.7 0.00 0.00 0.00 71 1011.6
20260505025536 67 0 0.0 1.7 0.00 0.00 0.00 72 1011.5
20260505025036 67 213 0.0 1.7 0.00 0.00 0.00 72 1011.5
20260505024548 68 0 0.0 1.7 0.00 0.00 0.00 72 1011.4
20260505024038 68 0 0.0 1.7 0.00 0.00 0.00 71 1011.4
20260505023536 68 0 0.0 2.6 0.00 0.00 0.00 71 1011.3
20260505023056 69 0 0.0 2.6 0.00 0.00 0.00 70 1011.3
20260505022536 69 0 0.0 2.6 0.00 0.00 0.00 70 1011.3
20260505022037 69 214 0.0 1.7 0.00 0.00 0.00 70 1011.4
20260505021550 69 0 0.0 2.6 0.00 0.00 0.00 68 1011.4
20260505021036 69 237 0.0 2.6 0.00 0.00 0.00 68 1011.4
20260505020537 69 0 0.9 2.6 0.00 0.00 0.00 69 1011.3
20260505020050 69 0 0.0 3.5 0.00 0.00 0.00 69 1011.4
20260505015537 70 0 0.9 3.5 0.00 0.00 0.00 70 1011.4
20260505015037 69 226 0.0 3.5 0.00 0.00 0.00 69 1011.3
20260505014544 69 208 0.0 2.6 0.00 0.00 0.00 69 1011.4
20260505014036 69 0 0.0 4.3 0.00 0.00 0.00 69 1011.4
20260505013536 69 0 0.0 4.3 0.00 0.00 0.00 67 1011.3
20260505013106 70 240 0.0 2.6 0.00 0.00 0.00 68 1011.4
20260505012535 70 0 0.0 4.3 0.00 0.00 0.00 67 1011.5
20260505012036 70 0 0.9 4.3 0.00 0.00 0.00 67 1011.4
20260505011551 70 0 0.0 4.3 0.00 0.00 0.00 68 1011.5
20260505011037 70 222 2.6 4.3 0.00 0.00 0.00 66 1011.5
20260505010537 70 0 0.9 4.3 0.00 0.00 0.00 68 1011.5
20260505010049 70 0 0.9 4.3 0.00 0.00 0.00 68 1011.6
20260505005536 70 0 0.0 5.2 0.00 0.00 0.00 68 1011.5
20260505005037 70 234 1.7 5.2 0.00 0.00 0.00 69 1011.7
20260505004555 70 253 0.9 4.3 0.00 0.00 0.00 67 1011.7
20260505004037 70 0 0.0 7.0 0.00 0.00 0.00 65 1011.7
20260505003535 70 219 2.6 7.0 0.00 0.00 0.00 65 1011.6
20260505003047 70 226 0.0 3.5 0.00 0.00 0.00 68 1011.6
20260505002538 70 0 0.9 4.3 0.00 0.00 0.00 68 1011.6
20260505002036 70 0 0.9 4.3 0.00 0.00 0.00 67 1011.7
20260505001551 70 0 0.0 2.6 0.00 0.00 0.00 66 1011.6
20260505001035 71 244 0.0 5.2 0.00 0.00 0.00 66 1011.6
20260505000536 70 219 0.9 5.2 0.00 0.00 0.00 66 1011.7
20260505000107 70 222 0.9 3.5 0.00 0.00 0.00 66 1011.8
20260504235536 70 231 0.0 4.3 0.00 0.00 0.00 66 1011.9
20260504235037 70 197 0.9 4.3 0.00 0.00 0.00 65 1011.9
20260504234548 70 195 0.0 4.3 0.00 0.00 0.00 66 1011.8
20260504234035 70 208 0.9 7.8 0.00 0.00 0.00 65 1011.9
20260504233536 70 229 3.5 7.8 0.00 0.00 0.00 65 1011.9
20260504233051 70 0 1.7 7.8 0.00 0.00 0.00 65 1011.8
20260504232536 70 226 0.9 4.3 0.00 0.00 0.00 65 1011.8
20260504232035 69 219 1.7 6.1 0.00 0.00 0.00 64 1011.9
20260504231545 69 0 0.9 6.1 0.00 0.00 0.00 65 1012.0
20260504231036 69 230 0.9 7.0 0.00 0.00 0.00 65 1012.0
20260504230539 69 240 0.9 7.0 0.00 0.00 0.00 64 1012.1
20260504230100 69 0 0.0 5.2 0.00 0.00 0.00 68 1012.1
20260504225536 69 0 1.7 6.1 0.00 0.00 0.00 64 1012.2
20260504225036 69 238 1.7 6.1 0.00 0.00 0.00 66 1012.2
20260504224549 69 0 0.0 0.9 0.00 0.00 0.00 65 1012.3
20260504224035 69 0 0.0 0.0 0.00 0.00 0.00 66 1012.2
20260504223535 69 0 0.0 0.0 0.00 0.00 0.00 66 1012.3
20260504223049 69 0 0.0 4.3 0.00 0.00 0.00 67 1012.5
20260504222536 68 0 0.9 4.3 0.00 0.00 0.00 69 1012.4
20260504222036 69 226 0.0 4.3 0.00 0.00 0.00 65 1012.6
20260504221557 69 0 0.0 0.0 0.00 0.00 0.00 65 1012.7
20260504221037 69 0 0.0 0.0 0.00 0.00 0.00 66 1012.8
20260504220536 68 0 0.0 0.0 0.00 0.00 0.00 67 1012.9
20260504220058 68 0 0.0 3.5 0.00 0.00 0.00 66 1012.9
20260504215536 68 0 0.0 3.5 0.00 0.00 0.00 66 1012.9
20260504215036 68 0 0.0 0.0 0.00 0.00 0.00 66 1012.9
20260504214542 68 0 0.0 0.0 0.00 0.00 0.00 64 1013.0
20260504214036 68 0 0.0 0.0 0.00 0.00 0.00 65 1013.1
20260504213535 67 0 0.0 0.0 0.00 0.00 0.00 65 1013.1
20260504213046 67 0 0.0 0.0 0.00 0.00 0.00 66 1013.2
20260504212539 67 0 0.0 0.0 0.00 0.00 0.00 67 1013.2
20260504212036 67 0 0.0 0.0 0.00 0.00 0.00 68 1013.3
20260504211550 67 0 0.0 0.0 0.00 0.00 0.00 69 1013.4
20260504211035 66 0 0.0 0.0 0.00 0.00 0.00 67 1013.4
20260504210535 68 0 0.0 0.0 0.00 0.00 0.00 66 1013.5
20260504210051 67 0 0.0 0.0 0.00 0.00 0.00 68 1013.5
20260504205537 67 0 0.0 0.0 0.00 0.00 0.00 65 1013.5
20260504205036 68 0 0.0 0.0 0.00 0.00 0.00 64 1013.6
20260504204543 68 0 0.0 0.0 0.00 0.00 0.00 67 1013.6
20260504204037 67 0 0.0 0.0 0.00 0.00 0.00 68 1013.8
20260504203537 67 0 0.0 0.0 0.00 0.00 0.00 64 1013.7
20260504203103 66 0 0.0 0.0 0.00 0.00 0.00 71 1013.8
20260504202536 65 0 0.0 0.0 0.00 0.00 0.00 67 1013.8
20260504202036 65 0 0.0 0.0 0.00 0.00 0.00 70 1013.9
20260504201554 64 0 0.0 0.0 0.00 0.00 0.00 70 1013.9
20260504201036 66 0 0.0 0.0 0.00 0.00 0.00 69 1013.9
20260504200536 65 0 0.0 0.0 0.00 0.00 0.00 71 1013.9
20260504200050 65 0 0.0 0.0 0.00 0.00 0.00 66 1014.0
20260504195535 65 0 0.0 0.0 0.00 0.00 0.00 70 1014.1
20260504195035 65 0 0.0 0.0 0.00 0.00 0.00 69 1014.0
20260504194549 64 0 0.0 0.0 0.00 0.00 0.00 74 1014.1
20260504194035 63 0 0.0 0.0 0.00 0.00 0.00 71 1014.2
20260504193535 63 0 0.0 0.0 0.00 0.00 0.00 71 1014.1
20260504193046 63 0 0.0 0.0 0.00 0.00 0.00 72 1014.1
20260504192536 63 0 0.0 0.0 0.00 0.00 0.00 72 1014.1
20260504192036 63 0 0.0 0.0 0.00 0.00 0.00 73 1014.3
20260504191548 61 0 0.0 0.0 0.00 0.00 0.00 75 1014.2
20260504191036 62 0 0.0 0.0 0.00 0.00 0.00 72 1014.2
20260504190535 61 0 0.0 0.0 0.00 0.00 0.00 75 1014.3
20260504190051 61 0 0.0 0.0 0.00 0.00 0.00 78 1014.3
20260504185535 60 0 0.0 0.0 0.00 0.00 0.00 77 1014.4
20260504185035 60 0 0.0 0.0 0.00 0.00 0.00 77 1014.3
20260504184546 60 0 0.0 0.0 0.00 0.00 0.00 78 1014.5
20260504184035 59 0 0.0 0.0 0.00 0.00 0.00 80 1014.5
20260504183537 59 0 0.0 0.0 0.00 0.00 0.00 76 1014.5
20260504183047 59 0 0.0 0.0 0.00 0.00 0.00 76 1014.4
20260504182536 59 0 0.0 0.0 0.00 0.00 0.00 76 1014.3
20260504182035 57 0 0.0 0.0 0.00 0.00 0.00 79 1014.4
20260504181555 58 0 0.0 0.0 0.00 0.00 0.00 79 1014.3
20260504181035 58 0 0.0 0.0 0.00 0.00 0.00 78 1014.2
20260504180536 58 0 0.0 0.0 0.00 0.00 0.00 80 1014.2
20260504180050 58 0 0.0 0.0 0.00 0.00 0.00 81 1014.3
20260504175535 56 0 0.0 0.0 0.00 0.00 0.00 81 1014.3
20260504175036 57 0 0.0 0.0 0.00 0.00 0.00 80 1014.3
20260504174554 57 0 0.0 0.0 0.00 0.00 0.00 78 1014.2
20260504174037 57 0 0.0 0.0 0.00 0.00 0.00 80 1014.3
20260504173536 57 0 0.0 0.0 0.00 0.00 0.00 79 1014.3
20260504173053 57 0 0.0 0.0 0.00 0.00 0.00 80 1014.3
20260504172535 57 0 0.0 0.0 0.00 0.00 0.00 80 1014.3
20260504172036 56 0 0.0 0.0 0.00 0.00 0.00 83 1014.2
20260504171551 56 0 0.0 0.0 0.00 0.00 0.00 81 1014.2
20260504171036 56 0 0.0 0.0 0.00 0.00 0.00 80 1014.1
20260504170536 57 0 0.0 0.0 0.00 0.00 0.00 80 1014.1
20260504151035 52 0 0.0 0.0 0.00 0.00 0.00 87 1013.7
20260504150536 52 0 0.0 0.0 0.00 0.00 0.00 88 1013.7
20260504141035 50 0 0.0 0.0 0.00 0.00 0.00 89 1013.0
20260504140536 50 0 0.0 0.0 0.00 0.00 0.00 88 1013.0
20260504130539 52 0 0.0 0.0 0.00 0.00 0.00 85 1012.0